Time,TemperatureF,DewpointF,PressureIn,WindDirection,WindDirectionDegrees,WindSpeedMPH,WindSpeedGustMPH,Humidity,HourlyPrecipIn,Conditions,Clouds,dailyrainin,SoftwareType,DateUTC
2013-07-25 00:01:00,73.6,66.4,29.88,NE,49,0.0,0.0,78,0.00,,,0.00,meteohub,2013-07-25 04:01:00,
2013-07-25 00:02:00,73.4,66.2,29.88,NE,47,0.0,0.0,78,0.00,,,0.00,meteohub,2013-07-25 04:02:00,
2013-07-25 00:07:00,73.4,66.6,29.88,NE,46,0.0,0.0,79,0.00,,,0.00,meteohub,2013-07-25 04:07:00,
2013-07-25 00:12:00,73.2,66.4,29.88,NE,43,0.0,0.0,79,0.00,,,0.00,meteohub,2013-07-25 04:12:00,
2013-07-25 00:17:00,73.2,66.4,29.88,NE,43,0.0,0.0,79,0.00,,,0.00,meteohub,2013-07-25 04:17:00,
2013-07-25 00:22:00,73.0,66.2,29.88,NE,46,0.0,0.0,79,0.00,,,0.00,meteohub,2013-07-25 04:22:00,
2013-07-25 00:27:00,73.0,66.2,29.88,NE,43,0.0,0.0,79,0.00,,,0.00,meteohub,2013-07-25 04:27:00,
2013-07-25 00:32:00,73.0,66.2,29.88,NE,46,0.0,0.0,79,0.00,,,0.00,meteohub,2013-07-25 04:32:00,
2013-07-25 00:37:00,72.9,66.0,29.88,NE,46,0.0,0.0,79,0.00,,,0.00,meteohub,2013-07-25 04:37:00,
2013-07-25 00:42:00,72.9,66.0,29.88,NE,49,0.0,0.0,79,0.00,,,0.00,meteohub,2013-07-25 04:42:00,
2013-07-25 00:47:00,72.7,65.8,29.88,NE,46,0.0,0.0,79,0.00,,,0.00,meteohub,2013-07-25 04:47:00,
2013-07-25 00:52:00,72.7,66.2,29.88,NE,45,0.0,0.0,80,0.00,,,0.00,meteohub,2013-07-25 04:52:00,
2013-07-25 00:57:00,72.7,66.2,29.88,NE,43,0.0,0.0,80,0.00,,,0.00,meteohub,2013-07-25 04:57:00,
2013-07-25 01:02:00,72.5,66.0,29.88,NE,43,0.0,0.0,80,0.00,,,0.00,meteohub,2013-07-25 05:02:00,
2013-07-25 01:07:00,72.5,66.0,29.88,NE,46,0.0,0.0,80,0.00,,,0.00,meteohub,2013-07-25 05:07:00,
2013-07-25 01:12:00,72.5,66.0,29.88,NE,43,0.0,0.0,80,0.00,,,0.00,meteohub,2013-07-25 05:12:00,
2013-07-25 01:17:00,72.3,65.8,29.88,NE,45,0.0,0.0,80,0.00,,,0.00,meteohub,2013-07-25 05:17:00,
2013-07-25 01:22:00,72.3,65.8,29.88,NE,43,0.0,0.0,80,0.00,,,0.00,meteohub,2013-07-25 05:22:00,
2013-07-25 01:27:00,72.3,65.8,29.88,NE,46,0.0,0.0,80,0.00,,,0.00,meteohub,2013-07-25 05:27:00,
2013-07-25 01:32:00,72.1,65.7,29.88,NE,43,0.0,0.0,80,0.00,,,0.00,meteohub,2013-07-25 05:32:00,
2013-07-25 01:37:00,72.1,65.7,29.88,NE,47,0.0,0.0,80,0.00,,,0.00,meteohub,2013-07-25 05:37:00,
2013-07-25 01:43:00,72.1,65.7,29.88,NE,46,0.0,0.0,80,0.00,,,0.00,meteohub,2013-07-25 05:43:00,
2013-07-25 01:48:00,72.0,65.5,29.88,NE,46,0.0,0.0,80,0.00,,,0.00,meteohub,2013-07-25 05:48:00,
2013-07-25 01:53:00,72.0,65.5,29.88,NE,46,0.0,0.0,80,0.00,,,0.00,meteohub,2013-07-25 05:53:00,
2013-07-25 01:58:00,72.0,65.5,29.88,NE,46,0.0,0.0,80,0.00,,,0.00,meteohub,2013-07-25 05:58:00,
2013-07-25 02:03:00,72.0,65.5,29.88,NE,45,0.0,0.0,80,0.00,,,0.00,meteohub,2013-07-25 06:03:00,
2013-07-25 02:08:00,71.8,65.3,29.88,NE,46,0.0,0.0,80,0.00,,,0.00,meteohub,2013-07-25 06:08:00,
2013-07-25 02:13:00,71.8,65.3,29.88,NE,46,0.0,0.0,80,0.00,,,0.00,meteohub,2013-07-25 06:13:00,
2013-07-25 02:18:00,71.8,65.3,-100.00,NE,43,0.0,0.0,80,0.00,,,0.00,meteohub,2013-07-25 06:18:00,
2013-07-25 02:23:00,71.6,65.5,29.91,NE,46,0.0,0.0,81,0.00,,,0.00,meteohub,2013-07-25 06:23:00,
2013-07-25 02:28:00,71.6,65.5,29.91,NE,47,0.0,0.0,81,0.00,,,0.00,meteohub,2013-07-25 06:28:00,
2013-07-25 02:33:00,71.6,65.5,29.91,NE,46,0.0,0.0,81,0.00,,,0.00,meteohub,2013-07-25 06:33:00,
2013-07-25 02:38:00,71.6,65.5,29.91,NE,43,0.0,0.0,81,0.00,,,0.00,meteohub,2013-07-25 06:38:00,
2013-07-25 02:43:00,71.4,65.3,29.88,NE,46,0.0,0.0,81,0.00,,,0.00,meteohub,2013-07-25 06:43:00,
2013-07-25 02:48:00,71.4,65.3,29.88,NE,46,0.0,0.0,81,0.00,,,0.00,meteohub,2013-07-25 06:48:00,
2013-07-25 02:53:00,71.4,65.3,29.88,NE,48,0.0,0.0,81,0.00,,,0.00,meteohub,2013-07-25 06:53:00,
2013-07-25 02:58:00,71.4,65.3,29.88,NE,46,0.0,0.0,81,0.00,,,0.00,meteohub,2013-07-25 06:58:00,
2013-07-25 03:03:00,71.4,65.3,29.88,NE,43,0.0,0.0,81,0.00,,,0.00,meteohub,2013-07-25 07:03:00,
2013-07-25 03:08:00,71.4,65.3,29.88,NE,44,0.0,0.0,81,0.00,,,0.00,meteohub,2013-07-25 07:08:00,
2013-07-25 03:13:00,71.2,65.1,29.88,NE,48,0.0,0.0,81,0.00,,,0.00,meteohub,2013-07-25 07:13:00,
2013-07-25 03:18:00,71.2,65.1,29.88,NE,47,0.0,0.0,81,0.00,,,0.00,meteohub,2013-07-25 07:18:00,
2013-07-25 03:23:00,71.2,65.1,29.88,NE,47,0.0,0.0,81,0.00,,,0.00,meteohub,2013-07-25 07:23:00,
2013-07-25 03:28:00,71.2,65.1,29.88,NE,47,0.0,0.0,81,0.00,,,0.00,meteohub,2013-07-25 07:28:00,
2013-07-25 03:33:00,71.2,65.1,29.88,NE,45,0.0,0.0,81,0.00,,,0.00,meteohub,2013-07-25 07:33:00,
2013-07-25 03:38:00,71.1,64.9,29.88,NE,43,0.0,0.0,81,0.00,,,0.00,meteohub,2013-07-25 07:38:00,
2013-07-25 03:43:00,71.1,64.9,29.88,NE,43,0.0,0.0,81,0.00,,,0.00,meteohub,2013-07-25 07:43:00,
2013-07-25 03:48:00,71.1,64.9,29.88,NE,43,0.0,0.0,81,0.00,,,0.00,meteohub,2013-07-25 07:48:00,
2013-07-25 03:53:00,71.1,64.9,29.88,NE,45,0.0,0.0,81,0.00,,,0.00,meteohub,2013-07-25 07:53:00,
2013-07-25 03:58:00,71.1,64.9,29.88,NE,45,0.0,0.0,81,0.00,,,0.00,meteohub,2013-07-25 07:58:00,
2013-07-25 04:03:00,70.9,64.8,29.88,NE,46,0.0,0.0,81,0.00,,,0.00,meteohub,2013-07-25 08:03:00,
2013-07-25 04:08:00,70.9,64.8,29.88,NE,49,0.0,0.0,81,0.00,,,0.00,meteohub,2013-07-25 08:08:00,
2013-07-25 04:13:00,70.9,64.8,29.88,NE,47,0.0,0.0,81,0.00,,,0.00,meteohub,2013-07-25 08:13:00,
2013-07-25 04:18:00,70.9,64.8,29.88,NE,48,0.0,0.0,81,0.00,,,0.00,meteohub,2013-07-25 08:18:00,
2013-07-25 04:23:00,70.9,64.8,29.88,NE,43,0.0,0.0,81,0.00,,,0.00,meteohub,2013-07-25 08:23:00,
2013-07-25 04:28:00,70.9,65.1,29.88,NE,48,0.0,0.0,82,0.00,,,0.00,meteohub,2013-07-25 08:28:00,
2013-07-25 04:33:00,70.7,64.9,29.88,NE,43,0.0,0.0,82,0.00,,,0.00,meteohub,2013-07-25 08:33:00,
2013-07-25 04:38:00,70.7,64.9,29.88,NE,47,4.0,0.0,82,0.00,,,0.00,meteohub,2013-07-25 08:38:00,
2013-07-25 04:43:00,70.7,64.9,29.88,NE,46,0.0,0.0,82,0.00,,,0.00,meteohub,2013-07-25 08:43:00,
2013-07-25 04:48:00,70.7,64.9,29.88,NE,45,0.0,4.0,82,0.00,,,0.00,meteohub,2013-07-25 08:48:00,
2013-07-25 04:53:00,70.7,64.9,29.88,NE,44,0.0,4.0,82,0.00,,,0.00,meteohub,2013-07-25 08:53:00,
2013-07-25 04:58:00,70.7,64.9,29.88,NE,47,0.0,0.0,82,0.00,,,0.00,meteohub,2013-07-25 08:58:00,
2013-07-25 05:03:00,70.7,64.9,29.88,NE,46,0.0,0.0,82,0.00,,,0.00,meteohub,2013-07-25 09:03:00,
2013-07-25 05:08:00,70.5,64.8,29.88,NE,46,0.0,0.0,82,0.00,,,0.00,meteohub,2013-07-25 09:08:00,
2013-07-25 05:13:00,70.5,64.8,29.88,NE,46,0.0,0.0,82,0.00,,,0.00,meteohub,2013-07-25 09:13:00,
2013-07-25 05:18:00,70.5,64.8,29.88,NE,48,0.0,0.0,82,0.00,,,0.00,meteohub,2013-07-25 09:18:00,
2013-07-25 05:23:00,70.5,64.8,29.88,NE,44,0.0,0.0,82,0.00,,,0.00,meteohub,2013-07-25 09:23:00,
2013-07-25 05:28:00,70.5,64.8,29.88,NE,48,0.0,0.0,82,0.00,,,0.00,meteohub,2013-07-25 09:28:00,
2013-07-25 05:33:00,70.5,64.8,29.88,NE,47,0.0,0.0,82,0.00,,,0.00,meteohub,2013-07-25 09:33:00,
2013-07-25 05:38:00,70.3,64.6,29.88,NE,46,0.0,0.0,82,0.00,,,0.00,meteohub,2013-07-25 09:38:00,
2013-07-25 05:43:00,70.3,64.6,29.88,NE,43,0.0,0.0,82,0.00,,,0.00,meteohub,2013-07-25 09:43:00,
2013-07-25 05:48:00,70.3,64.6,29.88,NE,49,0.0,0.0,82,0.00,,,0.00,meteohub,2013-07-25 09:48:00,
2013-07-25 05:53:00,70.3,64.6,29.88,NE,47,0.0,0.0,82,0.00,,,0.00,meteohub,2013-07-25 09:53:00,
2013-07-25 05:58:00,70.2,64.4,29.88,NE,47,0.0,0.0,82,0.00,,,0.00,meteohub,2013-07-25 09:58:00,
2013-07-25 06:04:00,70.2,64.4,29.88,NE,44,0.0,0.0,82,0.00,,,0.00,meteohub,2013-07-25 10:04:00,
2013-07-25 06:09:00,70.2,64.4,29.88,NE,46,0.0,0.0,82,0.00,,,0.00,meteohub,2013-07-25 10:09:00,
2013-07-25 06:14:00,70.2,64.4,29.88,NE,46,0.0,0.0,82,0.00,,,0.00,meteohub,2013-07-25 10:14:00,
2013-07-25 06:19:00,70.2,64.4,29.88,NE,49,0.0,0.0,82,0.00,,,0.00,meteohub,2013-07-25 10:19:00,
2013-07-25 06:24:00,70.2,64.4,29.89,NE,48,0.0,0.0,82,0.00,,,0.00,meteohub,2013-07-25 10:24:00,
2013-07-25 06:29:00,70.0,64.2,29.92,NE,46,0.0,0.0,82,0.00,,,0.00,meteohub,2013-07-25 10:29:00,
2013-07-25 06:34:00,70.0,64.2,29.92,NE,48,0.0,0.0,82,0.00,,,0.00,meteohub,2013-07-25 10:34:00,
2013-07-25 06:39:00,70.0,64.2,29.92,NE,46,0.0,0.0,82,0.00,,,0.00,meteohub,2013-07-25 10:39:00,
2013-07-25 06:44:00,70.0,64.2,29.92,NE,47,0.0,0.0,82,0.00,,,0.00,meteohub,2013-07-25 10:44:00,
2013-07-25 06:49:00,69.8,64.0,29.92,NE,43,0.0,0.0,82,0.00,,,0.00,meteohub,2013-07-25 10:49:00,
2013-07-25 06:54:00,69.8,64.0,29.92,NE,43,0.0,0.0,82,0.00,,,0.00,meteohub,2013-07-25 10:54:00,
2013-07-25 06:59:00,69.8,64.0,29.92,NE,43,0.0,0.0,82,0.00,,,0.00,meteohub,2013-07-25 10:59:00,
2013-07-25 07:04:00,69.8,64.0,29.92,NE,43,0.0,0.0,82,0.00,,,0.00,meteohub,2013-07-25 11:04:00,
2013-07-25 07:09:00,69.8,64.0,29.92,NE,48,0.0,0.0,82,0.00,,,0.00,meteohub,2013-07-25 11:09:00,
2013-07-25 07:14:00,69.8,64.0,29.92,NE,48,0.0,0.0,82,0.00,,,0.00,meteohub,2013-07-25 11:14:00,
2013-07-25 07:19:00,69.8,64.0,29.92,NE,47,0.0,0.0,82,0.00,,,0.00,meteohub,2013-07-25 11:19:00,
2013-07-25 07:24:00,69.8,64.0,29.92,NE,47,0.0,0.0,82,0.00,,,0.00,meteohub,2013-07-25 11:24:00,
2013-07-25 07:29:00,70.0,64.2,29.91,NE,46,0.0,0.0,82,0.00,,,0.00,meteohub,2013-07-25 11:29:00,
2013-07-25 07:34:00,70.0,64.2,29.91,NE,46,0.0,0.0,82,0.00,,,0.00,meteohub,2013-07-25 11:34:00,
2013-07-25 07:39:00,70.0,64.2,29.91,NE,47,0.0,0.0,82,0.00,,,0.00,meteohub,2013-07-25 11:39:00,
2013-07-25 07:44:00,70.2,64.4,29.94,NE,47,0.0,0.0,82,0.00,,,0.00,meteohub,2013-07-25 11:44:00,
2013-07-25 07:49:00,70.2,64.4,29.94,NE,46,0.0,0.0,82,0.00,,,0.00,meteohub,2013-07-25 11:49:00,
2013-07-25 07:54:00,70.3,64.6,29.94,NE,48,0.0,0.0,82,0.00,,,0.00,meteohub,2013-07-25 11:54:00,
2013-07-25 07:59:00,70.5,64.8,29.94,NE,46,0.0,0.0,82,0.00,,,0.00,meteohub,2013-07-25 11:59:00,
2013-07-25 08:04:00,70.5,64.8,29.94,NE,48,0.0,0.0,82,0.00,,,0.00,meteohub,2013-07-25 12:04:00,
2013-07-25 08:09:00,70.7,64.9,29.94,NE,47,0.0,2.0,82,0.00,,,0.00,meteohub,2013-07-25 12:09:00,
2013-07-25 08:14:00,70.7,64.9,29.94,NE,48,0.0,2.0,82,0.00,,,0.00,meteohub,2013-07-25 12:14:00,
2013-07-25 08:19:00,70.9,65.1,29.94,NE,47,0.0,2.0,82,0.00,,,0.00,meteohub,2013-07-25 12:19:00,
2013-07-25 08:24:00,71.1,64.9,29.94,NE,48,0.0,0.0,81,0.00,,,0.00,meteohub,2013-07-25 12:24:00,
2013-07-25 08:29:00,71.2,65.1,29.94,NE,48,0.0,0.0,81,0.00,,,0.00,meteohub,2013-07-25 12:29:00,
2013-07-25 08:34:00,71.4,65.3,29.94,NE,49,3.0,3.0,81,0.00,,,0.00,meteohub,2013-07-25 12:34:00,
2013-07-25 08:39:00,71.6,65.5,29.94,East,92,0.0,3.0,81,0.00,,,0.00,meteohub,2013-07-25 12:39:00,
2013-07-25 08:44:00,72.0,65.8,29.94,East,100,4.0,4.0,81,0.00,,,0.00,meteohub,2013-07-25 12:44:00,
2013-07-25 08:49:00,72.1,65.7,29.94,ESE,114,4.0,4.0,80,0.00,,,0.00,meteohub,2013-07-25 12:49:00,
2013-07-25 08:54:00,72.5,66.0,29.94,ESE,111,4.0,6.0,80,0.00,,,0.00,meteohub,2013-07-25 12:54:00,
2013-07-25 08:59:00,72.9,66.4,29.93,SE,127,4.0,8.0,80,0.00,,,0.00,meteohub,2013-07-25 12:59:00,
2013-07-25 09:04:00,73.2,66.4,29.93,SSE,148,4.0,8.0,79,0.00,,,0.00,meteohub,2013-07-25 13:04:00,
2013-07-25 09:09:00,73.6,66.4,29.93,SSE,153,4.0,8.0,78,0.00,,,0.00,meteohub,2013-07-25 13:09:00,
2013-07-25 09:14:00,73.9,66.6,29.93,SSE,155,7.0,9.0,78,0.00,,,0.00,meteohub,2013-07-25 13:14:00,
2013-07-25 09:19:00,74.3,66.6,29.93,SSE,155,5.0,9.0,77,0.00,,,0.00,meteohub,2013-07-25 13:19:00,
2013-07-25 09:24:00,74.5,66.4,29.93,SSE,149,6.0,9.0,76,0.00,,,0.00,meteohub,2013-07-25 13:24:00,
2013-07-25 09:29:00,74.7,66.6,29.96,SE,126,8.0,10.0,76,0.00,,,0.00,meteohub,2013-07-25 13:29:00,
2013-07-25 09:34:00,75.2,66.7,29.96,SSE,153,8.0,10.0,75,0.00,,,0.00,meteohub,2013-07-25 13:34:00,
2013-07-25 09:40:00,75.4,66.9,29.96,SE,144,6.0,10.0,75,0.00,,,0.00,meteohub,2013-07-25 13:40:00,
2013-07-25 09:45:00,75.6,66.7,29.96,East,98,3.0,11.0,74,0.00,,,0.00,meteohub,2013-07-25 13:45:00,
2013-07-25 09:50:00,75.7,66.9,29.96,ESE,114,6.0,11.0,74,0.00,,,0.00,meteohub,2013-07-25 13:50:00,
2013-07-25 09:55:00,75.9,67.1,29.96,SE,134,6.0,11.0,74,0.00,,,0.00,meteohub,2013-07-25 13:55:00,
2013-07-25 10:00:00,76.1,66.7,29.96,SE,128,5.0,10.0,73,0.00,,,0.00,meteohub,2013-07-25 14:00:00,
2013-07-25 10:05:00,76.3,66.9,29.96,ESE,115,4.0,8.0,73,0.00,,,0.00,meteohub,2013-07-25 14:05:00,
2013-07-25 10:10:00,76.3,66.9,29.96,ENE,71,3.0,8.0,73,0.00,,,0.00,meteohub,2013-07-25 14:10:00,
2013-07-25 10:15:00,76.6,67.3,29.96,ESE,120,4.0,10.0,73,0.00,,,0.00,meteohub,2013-07-25 14:15:00,
2013-07-25 10:20:00,77.0,67.3,29.96,East,81,5.0,10.0,72,0.00,,,0.00,meteohub,2013-07-25 14:20:00,
2013-07-25 10:25:00,77.5,67.5,29.96,SSE,158,8.0,10.0,71,0.00,,,0.00,meteohub,2013-07-25 14:25:00,
2013-07-25 10:30:00,78.1,67.5,29.96,SSE,154,6.0,8.0,70,0.00,,,0.00,meteohub,2013-07-25 14:30:00,
2013-07-25 10:35:00,78.8,67.8,29.96,SSE,152,7.0,8.0,69,0.00,,,0.00,meteohub,2013-07-25 14:35:00,
2013-07-25 10:40:00,79.0,67.5,29.96,East,97,4.0,9.0,68,0.00,,,0.00,meteohub,2013-07-25 14:40:00,
2013-07-25 10:45:00,79.2,67.6,29.96,ENE,77,5.0,9.0,68,0.00,,,0.00,meteohub,2013-07-25 14:45:00,
2013-07-25 10:50:00,79.3,67.8,29.96,ESE,104,4.0,9.0,68,0.00,,,0.00,meteohub,2013-07-25 14:50:00,
2013-07-25 10:55:00,79.3,67.8,29.96,East,97,0.0,9.0,68,0.00,,,0.00,meteohub,2013-07-25 14:55:00,
2013-07-25 11:00:00,79.7,68.2,29.96,SSE,150,2.0,8.0,68,0.00,,,0.00,meteohub,2013-07-25 15:00:00,
2013-07-25 11:05:00,80.2,68.4,29.96,SE,133,6.0,8.0,67,0.00,,,0.00,meteohub,2013-07-25 15:05:00,
2013-07-25 11:10:00,80.4,68.5,29.96,ESE,108,3.0,8.0,67,0.00,,,0.00,meteohub,2013-07-25 15:10:00,
2013-07-25 11:15:00,80.6,68.2,29.96,ESE,104,4.0,8.0,66,0.00,,,0.00,meteohub,2013-07-25 15:15:00,
2013-07-25 11:20:00,81.0,68.5,29.96,SSE,148,6.0,8.0,66,0.00,,,0.00,meteohub,2013-07-25 15:20:00,
2013-07-25 11:25:00,81.0,68.0,29.96,SSE,153,4.0,8.0,65,0.00,,,0.00,meteohub,2013-07-25 15:25:00,
2013-07-25 11:30:00,81.1,68.2,29.96,ESE,111,3.0,8.0,65,0.00,,,0.00,meteohub,2013-07-25 15:30:00,
2013-07-25 11:35:00,81.1,68.2,29.96,SE,141,4.0,9.0,65,0.00,,,0.00,meteohub,2013-07-25 15:35:00,
2013-07-25 11:40:00,81.7,68.4,29.96,East,98,5.0,9.0,64,0.00,,,0.00,meteohub,2013-07-25 15:40:00,
2013-07-25 11:45:00,81.7,68.4,29.96,NE,52,4.0,9.0,64,0.00,,,0.00,meteohub,2013-07-25 15:45:00,
2013-07-25 11:50:00,81.9,68.5,29.96,ESE,121,3.0,8.0,64,0.00,,,0.00,meteohub,2013-07-25 15:50:00,
2013-07-25 11:55:00,82.2,68.4,29.96,SE,138,3.0,8.0,63,0.00,,,0.00,meteohub,2013-07-25 15:55:00,
2013-07-25 12:00:00,82.4,68.5,29.96,South,189,0.0,8.0,63,0.00,,,0.00,meteohub,2013-07-25 16:00:00,
2013-07-25 12:05:00,82.6,68.7,29.96,SE,142,3.0,6.0,63,0.00,,,0.00,meteohub,2013-07-25 16:05:00,
2013-07-25 12:10:00,82.9,68.5,29.96,SSE,153,4.0,8.0,62,0.00,,,0.00,meteohub,2013-07-25 16:10:00,
2013-07-25 12:15:00,82.8,68.4,29.96,ESE,105,3.0,8.0,62,0.00,,,0.00,meteohub,2013-07-25 16:15:00,
2013-07-25 12:20:00,82.6,68.2,29.96,NNE,16,5.0,6.0,62,0.00,,,0.00,meteohub,2013-07-25 16:20:00,
2013-07-25 12:25:00,82.6,68.2,29.96,East,99,5.0,6.0,62,0.00,,,0.00,meteohub,2013-07-25 16:25:00,
2013-07-25 12:30:00,82.4,68.0,29.95,ENE,77,4.0,6.0,62,0.00,,,0.00,meteohub,2013-07-25 16:30:00,
2013-07-25 12:35:00,82.6,68.2,29.95,SE,143,4.0,6.0,62,0.00,,,0.00,meteohub,2013-07-25 16:35:00,
2013-07-25 12:40:00,83.1,68.4,29.95,East,100,7.0,7.0,61,0.00,,,0.00,meteohub,2013-07-25 16:40:00,
2013-07-25 12:45:00,83.5,68.5,29.95,SSE,148,3.0,8.0,61,0.00,,,0.00,meteohub,2013-07-25 16:45:00,
2013-07-25 12:50:00,84.0,68.7,29.95,ESE,107,3.0,8.0,60,0.00,,,0.00,meteohub,2013-07-25 16:50:00,
2013-07-25 12:55:00,84.2,68.7,29.95,SE,143,3.0,8.0,60,0.00,,,0.00,meteohub,2013-07-25 16:55:00,
2013-07-25 13:00:00,84.0,68.7,29.95,SE,140,3.0,6.0,60,0.00,,,0.00,meteohub,2013-07-25 17:00:00,
2013-07-25 13:05:00,84.4,68.9,29.95,SE,141,0.0,6.0,60,0.00,,,0.00,meteohub,2013-07-25 17:05:00,
2013-07-25 13:10:00,84.0,68.7,29.95,ESE,106,0.0,6.0,60,0.00,,,0.00,meteohub,2013-07-25 17:10:00,
2013-07-25 13:16:00,84.0,68.7,29.95,ESE,108,0.0,6.0,60,0.00,,,0.00,meteohub,2013-07-25 17:16:00,
2013-07-25 13:21:00,84.0,68.7,29.95,ESE,114,4.0,8.0,60,0.00,,,0.00,meteohub,2013-07-25 17:21:00,
2013-07-25 13:26:00,84.4,68.5,29.95,SE,133,3.0,8.0,59,0.00,,,0.00,meteohub,2013-07-25 17:26:00,
2013-07-25 13:31:00,84.0,68.2,29.95,South,189,3.0,8.0,59,0.00,,,0.00,meteohub,2013-07-25 17:31:00,
2013-07-25 13:36:00,84.6,68.7,29.95,SSE,158,0.0,6.0,59,0.00,,,0.00,meteohub,2013-07-25 17:36:00,
2013-07-25 13:41:00,84.9,68.9,29.95,SE,134,4.0,6.0,59,0.00,,,0.00,meteohub,2013-07-25 17:41:00,
2013-07-25 13:46:00,84.7,68.9,29.95,SSE,153,0.0,6.0,59,0.00,,,0.00,meteohub,2013-07-25 17:46:00,
2013-07-25 13:51:00,85.1,69.1,29.95,SSE,154,5.0,6.0,59,0.00,,,0.00,meteohub,2013-07-25 17:51:00,
2013-07-25 13:56:00,85.3,68.9,29.95,SE,142,0.0,6.0,58,0.00,,,0.00,meteohub,2013-07-25 17:56:00,
2013-07-25 14:01:00,85.1,68.7,29.95,SSW,199,0.0,6.0,58,0.00,,,0.00,meteohub,2013-07-25 18:01:00,
2013-07-25 14:06:00,85.1,68.7,29.95,SSW,193,0.0,6.0,58,0.00,,,0.00,meteohub,2013-07-25 18:06:00,
2013-07-25 14:11:00,85.5,69.1,29.95,South,189,4.0,6.0,58,0.00,,,0.00,meteohub,2013-07-25 18:11:00,
2013-07-25 14:16:00,85.6,69.1,29.94,SW,216,2.0,6.0,58,0.00,,,0.00,meteohub,2013-07-25 18:16:00,
2013-07-25 14:21:00,86.0,68.9,29.94,SW,214,3.0,6.0,57,0.00,,,0.00,meteohub,2013-07-25 18:21:00,
2013-07-25 14:26:00,85.8,68.9,29.94,SSE,155,4.0,6.0,57,0.00,,,0.00,meteohub,2013-07-25 18:26:00,
2013-07-25 14:31:00,85.8,68.9,29.94,SSW,206,4.0,5.0,57,0.00,,,0.00,meteohub,2013-07-25 18:31:00,
2013-07-25 14:36:00,85.8,68.9,29.94,South,176,3.0,5.0,57,0.00,,,0.00,meteohub,2013-07-25 18:36:00,
2013-07-25 14:41:00,85.8,68.9,29.94,SW,222,6.0,6.0,57,0.00,,,0.00,meteohub,2013-07-25 18:41:00,
2013-07-25 14:46:00,86.2,69.1,29.94,SSW,193,4.0,8.0,57,0.00,,,0.00,meteohub,2013-07-25 18:46:00,
2013-07-25 14:52:00,86.4,68.7,29.94,SW,223,4.0,8.0,56,0.00,,,0.00,meteohub,2013-07-25 18:52:00,
2013-07-25 14:57:00,86.4,68.7,29.94,SW,224,3.0,8.0,56,0.00,,,0.00,meteohub,2013-07-25 18:57:00,
2013-07-25 15:02:00,86.4,68.7,29.94,SE,143,4.0,8.0,56,0.00,,,0.00,meteohub,2013-07-25 19:02:00,
2013-07-25 15:07:00,86.4,68.7,29.94,West,263,0.0,6.0,56,0.00,,,0.00,meteohub,2013-07-25 19:07:00,
2013-07-25 15:12:00,86.4,68.7,29.94,SW,227,0.0,6.0,56,0.00,,,0.00,meteohub,2013-07-25 19:12:00,
2013-07-25 15:17:00,86.2,68.7,29.94,WSW,243,0.0,6.0,56,0.00,,,0.00,meteohub,2013-07-25 19:17:00,
2013-07-25 15:22:00,86.2,68.7,29.94,SW,234,0.0,5.0,56,0.00,,,0.00,meteohub,2013-07-25 19:22:00,
2013-07-25 15:27:00,86.2,68.7,29.94,SSW,198,3.0,5.0,56,0.00,,,0.00,meteohub,2013-07-25 19:27:00,
2013-07-25 15:32:00,86.2,68.2,29.94,ESE,120,0.0,5.0,55,0.00,,,0.00,meteohub,2013-07-25 19:32:00,
2013-07-25 15:37:00,86.0,67.5,29.94,SW,218,6.0,6.0,54,0.00,,,0.00,meteohub,2013-07-25 19:37:00,
2013-07-25 15:42:00,85.8,67.8,29.94,SSE,153,4.0,7.0,55,0.00,,,0.00,meteohub,2013-07-25 19:42:00,
2013-07-25 15:47:00,85.8,67.8,29.94,SSW,194,3.0,7.0,55,0.00,,,0.00,meteohub,2013-07-25 19:47:00,
2013-07-25 15:52:00,85.6,68.2,29.94,South,179,3.0,7.0,56,0.00,,,0.00,meteohub,2013-07-25 19:52:00,
2013-07-25 15:57:00,85.5,68.0,29.94,South,185,6.0,8.0,56,0.00,,,0.00,meteohub,2013-07-25 19:57:00,
2013-07-25 16:02:00,85.1,67.6,29.91,South,176,3.0,8.0,56,0.00,,,0.00,meteohub,2013-07-25 20:02:00,
2013-07-25 16:07:00,84.9,67.5,29.91,SSW,192,0.0,8.0,56,0.00,,,0.00,meteohub,2013-07-25 20:07:00,
2013-07-25 16:12:00,84.7,67.3,29.91,SW,222,0.0,8.0,56,0.00,,,0.00,meteohub,2013-07-25 20:12:00,
2013-07-25 16:18:00,84.6,67.1,29.94,South,186,5.0,8.0,56,0.00,,,0.00,meteohub,2013-07-25 20:18:00,
2013-07-25 16:23:00,84.4,67.5,29.94,SSW,193,4.0,6.0,57,0.00,,,0.00,meteohub,2013-07-25 20:23:00,
2013-07-25 16:28:00,84.2,67.3,29.94,West,263,0.0,6.0,57,0.00,,,0.00,meteohub,2013-07-25 20:28:00,
2013-07-25 16:33:00,83.8,67.5,29.94,West,263,0.0,6.0,58,0.00,,,0.00,meteohub,2013-07-25 20:33:00,
2013-07-25 16:38:00,83.7,67.3,29.94,West,263,0.0,5.0,58,0.00,,,0.00,meteohub,2013-07-25 20:38:00,
2013-07-25 16:43:00,83.5,67.1,29.94,West,263,0.0,4.0,58,0.00,,,0.00,meteohub,2013-07-25 20:43:00,
2013-07-25 16:48:00,83.5,67.1,29.94,South,185,4.0,4.0,58,0.00,,,0.00,meteohub,2013-07-25 20:48:00,
2013-07-25 16:53:00,83.3,66.9,29.94,SW,235,3.0,6.0,58,0.00,,,0.00,meteohub,2013-07-25 20:53:00,
2013-07-25 16:58:00,83.3,67.5,29.94,SW,219,0.0,6.0,59,0.00,,,0.00,meteohub,2013-07-25 20:58:00,
2013-07-25 17:03:00,83.1,67.3,29.94,SW,218,3.0,6.0,59,0.00,,,0.00,meteohub,2013-07-25 21:03:00,
2013-07-25 17:08:00,82.9,67.1,29.94,SW,231,0.0,6.0,59,0.00,,,0.00,meteohub,2013-07-25 21:08:00,
2013-07-25 17:13:00,82.9,67.1,29.95,SW,224,0.0,5.0,59,0.00,,,0.00,meteohub,2013-07-25 21:13:00,
2013-07-25 17:18:00,82.8,66.9,29.95,SSW,192,3.0,4.0,59,0.00,,,0.00,meteohub,2013-07-25 21:18:00,
2013-07-25 17:23:00,82.8,66.9,29.94,SSW,193,3.0,4.0,59,0.00,,,0.00,meteohub,2013-07-25 21:23:00,
2013-07-25 17:28:00,82.6,66.7,29.94,SW,231,0.0,4.0,59,0.00,,,0.00,meteohub,2013-07-25 21:28:00,
2013-07-25 17:33:00,82.6,66.7,29.94,West,263,3.0,3.0,59,0.00,,,0.00,meteohub,2013-07-25 21:33:00,
2013-07-25 17:38:00,82.4,67.1,29.95,SSW,211,0.0,4.0,60,0.00,,,0.00,meteohub,2013-07-25 21:38:00,
2013-07-25 17:43:00,82.4,67.1,29.94,SW,217,2.0,4.0,60,0.00,,,0.00,meteohub,2013-07-25 21:43:00,
2013-07-25 17:48:00,82.2,66.9,29.94,SW,216,5.0,5.0,60,0.00,,,0.00,meteohub,2013-07-25 21:48:00,
2013-07-25 17:53:00,82.2,66.9,29.94,SSW,213,4.0,5.0,60,0.00,,,0.00,meteohub,2013-07-25 21:53:00,
2013-07-25 17:58:00,82.2,66.9,29.94,SW,216,3.0,6.0,60,0.00,,,0.00,meteohub,2013-07-25 21:58:00,
2013-07-25 18:03:00,82.0,66.7,29.94,WSW,241,0.0,6.0,60,0.00,,,0.00,meteohub,2013-07-25 22:03:00,
2013-07-25 18:08:00,82.0,66.7,29.94,SW,229,0.0,6.0,60,0.00,,,0.00,meteohub,2013-07-25 22:08:00,
2013-07-25 18:13:00,81.9,66.6,29.94,South,180,3.0,4.0,60,0.00,,,0.00,meteohub,2013-07-25 22:13:00,
2013-07-25 18:18:00,81.9,66.6,29.91,SW,236,0.0,4.0,60,0.00,,,0.00,meteohub,2013-07-25 22:18:00,
2013-07-25 18:23:00,81.7,66.4,29.91,NNE,14,0.0,4.0,60,0.00,,,0.00,meteohub,2013-07-25 22:23:00,
2013-07-25 18:28:00,81.7,66.4,29.91,WSW,241,2.0,5.0,60,0.00,,,0.00,meteohub,2013-07-25 22:28:00,
2013-07-25 18:33:00,81.7,66.4,29.91,SSE,153,0.0,5.0,60,0.00,,,0.00,meteohub,2013-07-25 22:33:00,
2013-07-25 18:38:00,81.5,66.2,29.91,SW,236,0.0,5.0,60,0.00,,,0.00,meteohub,2013-07-25 22:38:00,
2013-07-25 18:43:00,81.5,66.2,29.94,SSW,192,4.0,4.0,60,0.00,,,0.00,meteohub,2013-07-25 22:43:00,
2013-07-25 18:48:00,81.5,66.2,29.94,SSW,197,4.0,4.0,60,0.00,,,0.00,meteohub,2013-07-25 22:48:00,
2013-07-25 18:53:00,81.5,66.2,29.94,South,186,0.0,6.0,60,0.00,,,0.00,meteohub,2013-07-25 22:53:00,
2013-07-25 18:58:00,81.3,66.0,29.94,West,263,0.0,6.0,60,0.00,,,0.00,meteohub,2013-07-25 22:58:00,
2013-07-25 19:03:00,81.3,66.0,29.94,NNE,21,0.0,6.0,60,0.00,,,0.00,meteohub,2013-07-25 23:03:00,
2013-07-25 19:08:00,81.1,66.0,29.94,NNE,21,0.0,4.0,60,0.00,,,0.00,meteohub,2013-07-25 23:08:00,
2013-07-25 19:13:00,81.1,66.0,29.94,SW,232,3.0,3.0,60,0.00,,,0.00,meteohub,2013-07-25 23:13:00,
2013-07-25 19:18:00,81.1,66.0,29.94,SSW,213,4.0,4.0,60,0.00,,,0.00,meteohub,2013-07-25 23:18:00,
2013-07-25 19:23:00,81.0,66.2,29.94,SW,214,2.0,5.0,61,0.00,,,0.00,meteohub,2013-07-25 23:23:00,
2013-07-25 19:28:00,80.8,67.5,29.95,SW,219,0.0,5.0,64,0.00,,,0.00,meteohub,2013-07-25 23:28:00,
2013-07-25 19:33:00,80.4,68.0,29.95,SSW,213,0.0,5.0,66,0.00,,,0.00,meteohub,2013-07-25 23:33:00,
2013-07-25 19:38:00,80.2,70.9,29.95,SSW,213,0.0,3.0,73,0.00,,,0.00,meteohub,2013-07-25 23:38:00,
2013-07-25 19:43:00,79.7,71.4,29.98,ENE,77,3.0,0.0,76,0.00,,,0.00,meteohub,2013-07-25 23:43:00,
2013-07-25 19:48:00,79.0,70.7,29.98,NE,54,9.0,9.0,76,0.00,,,0.00,meteohub,2013-07-25 23:48:00,
2013-07-25 19:53:00,78.4,70.2,29.99,East,82,8.0,11.0,76,0.00,,,0.00,meteohub,2013-07-25 23:53:00,
2013-07-25 19:58:00,77.9,69.8,29.99,ENE,65,4.0,11.0,76,0.00,,,0.00,meteohub,2013-07-25 23:58:00,
2013-07-25 20:03:00,77.2,69.4,29.99,ENE,59,5.0,11.0,77,0.00,,,0.00,meteohub,2013-07-26 00:03:00,
2013-07-25 20:08:00,76.5,68.7,29.99,SE,131,5.0,15.0,77,0.00,,,0.00,meteohub,2013-07-26 00:08:00,
2013-07-25 20:14:00,76.1,68.4,29.99,East,85,3.0,15.0,77,0.00,,,0.00,meteohub,2013-07-26 00:14:00,
2013-07-25 20:19:00,75.9,68.2,29.99,NE,43,2.0,15.0,77,0.04,,,0.04,meteohub,2013-07-26 00:19:00,
2013-07-25 20:24:00,75.4,67.3,30.00,ESE,106,5.0,8.0,76,0.04,,,0.04,meteohub,2013-07-26 00:24:00,
2013-07-25 20:29:00,74.8,66.7,30.01,SE,131,4.0,8.0,76,0.04,,,0.04,meteohub,2013-07-26 00:29:00,
2013-07-25 20:34:00,74.7,66.2,30.01,ESE,112,2.0,8.0,75,0.04,,,0.04,meteohub,2013-07-26 00:34:00,
2013-07-25 20:39:00,74.3,65.8,30.01,SE,131,0.0,8.0,75,0.04,,,0.04,meteohub,2013-07-26 00:39:00,
2013-07-25 20:44:00,74.1,65.3,30.04,ESE,120,0.0,6.0,74,0.04,,,0.04,meteohub,2013-07-26 00:44:00,
2013-07-25 20:49:00,73.9,65.1,30.04,SSW,194,0.0,6.0,74,0.04,,,0.04,meteohub,2013-07-26 00:49:00,
2013-07-25 20:54:00,73.8,64.9,30.04,West,263,2.0,6.0,74,0.04,,,0.04,meteohub,2013-07-26 00:54:00,
2013-07-25 20:59:00,73.6,64.4,30.04,ENE,65,0.0,6.0,73,0.04,,,0.04,meteohub,2013-07-26 00:59:00,
2013-07-25 21:04:00,73.4,64.2,30.04,ENE,66,3.0,6.0,73,0.04,,,0.04,meteohub,2013-07-26 01:04:00,
2013-07-25 21:09:00,73.0,63.9,30.04,ENE,71,0.0,5.0,73,0.04,,,0.04,meteohub,2013-07-26 01:09:00,
2013-07-25 21:14:00,73.0,63.9,30.04,ENE,65,0.0,5.0,73,0.04,,,0.04,meteohub,2013-07-26 01:14:00,
2013-07-25 21:19:00,72.9,63.7,30.04,ENE,71,0.0,5.0,73,0.00,,,0.04,meteohub,2013-07-26 01:19:00,
2013-07-25 21:24:00,72.7,63.5,30.04,ENE,65,0.0,5.0,73,0.00,,,0.04,meteohub,2013-07-26 01:24:00,
2013-07-25 21:29:00,72.5,63.3,30.04,ENE,68,0.0,0.0,73,0.00,,,0.04,meteohub,2013-07-26 01:29:00,
2013-07-25 21:34:00,72.3,63.1,30.04,ENE,66,4.0,0.0,73,0.00,,,0.04,meteohub,2013-07-26 01:34:00,
2013-07-25 21:39:00,72.3,63.1,30.04,ENE,65,0.0,2.0,73,0.00,,,0.04,meteohub,2013-07-26 01:39:00,
2013-07-25 21:44:00,72.1,63.3,30.04,ENE,66,0.0,4.0,74,0.00,,,0.04,meteohub,2013-07-26 01:44:00,
2013-07-25 21:49:00,72.1,63.3,30.04,ENE,65,0.0,4.0,74,0.00,,,0.04,meteohub,2013-07-26 01:49:00,
2013-07-25 21:54:00,72.1,63.3,30.04,ENE,77,0.0,3.0,74,0.00,,,0.04,meteohub,2013-07-26 01:54:00,
2013-07-25 21:59:00,72.0,63.1,30.04,ENE,66,0.0,0.0,74,0.00,,,0.04,meteohub,2013-07-26 01:59:00,
2013-07-25 22:04:00,72.0,63.1,30.04,North,353,0.0,0.0,74,0.00,,,0.04,meteohub,2013-07-26 02:04:00,
2013-07-25 22:09:00,72.0,63.1,30.04,North,353,0.0,0.0,74,0.00,,,0.04,meteohub,2013-07-26 02:09:00,
2013-07-25 22:14:00,71.8,63.5,30.04,North,353,0.0,0.0,75,0.00,,,0.04,meteohub,2013-07-26 02:14:00,
2013-07-25 22:19:00,71.8,63.5,30.04,ENE,65,0.0,0.0,75,0.00,,,0.04,meteohub,2013-07-26 02:19:00,
2013-07-25 22:24:00,71.8,63.5,30.04,West,262,0.0,0.0,75,0.00,,,0.04,meteohub,2013-07-26 02:24:00,
2013-07-25 22:29:00,71.8,63.5,30.04,North,353,0.0,0.0,75,0.00,,,0.04,meteohub,2013-07-26 02:29:00,
2013-07-25 22:34:00,71.6,63.3,30.04,North,353,0.0,0.0,75,0.00,,,0.04,meteohub,2013-07-26 02:34:00,
2013-07-25 22:39:00,71.6,63.3,30.04,North,353,0.0,3.0,75,0.00,,,0.04,meteohub,2013-07-26 02:39:00,
2013-07-25 22:44:00,71.6,63.3,30.04,North,353,0.0,3.0,75,0.00,,,0.04,meteohub,2013-07-26 02:44:00,
2013-07-25 22:49:00,71.6,63.3,30.04,North,353,0.0,2.0,75,0.00,,,0.04,meteohub,2013-07-26 02:49:00,
2013-07-25 22:54:00,71.4,63.5,30.04,North,353,0.0,0.0,76,0.00,,,0.04,meteohub,2013-07-26 02:54:00,
2013-07-25 22:59:00,71.4,63.5,30.04,North,353,0.0,0.0,76,0.00,,,0.04,meteohub,2013-07-26 02:59:00,
2013-07-25 23:04:00,71.4,63.5,30.04,North,353,0.0,0.0,76,0.00,,,0.04,meteohub,2013-07-26 03:04:00,
2013-07-25 23:09:00,71.2,63.3,30.04,North,353,0.0,0.0,76,0.00,,,0.04,meteohub,2013-07-26 03:09:00,
2013-07-25 23:14:00,71.2,63.3,30.04,North,353,0.0,0.0,76,0.00,,,0.04,meteohub,2013-07-26 03:14:00,
2013-07-25 23:19:00,71.1,63.1,30.04,North,353,0.0,0.0,76,0.00,,,0.04,meteohub,2013-07-26 03:19:00,
2013-07-25 23:24:00,71.1,63.1,30.04,North,353,0.0,0.0,76,0.00,,,0.04,meteohub,2013-07-26 03:24:00,
2013-07-25 23:29:00,71.1,63.1,30.04,North,353,0.0,0.0,76,0.00,,,0.04,meteohub,2013-07-26 03:29:00,
2013-07-25 23:34:00,71.1,63.5,30.04,North,353,0.0,2.0,77,0.00,,,0.04,meteohub,2013-07-26 03:34:00,
2013-07-25 23:40:00,70.9,63.3,30.04,North,353,0.0,3.0,77,0.00,,,0.04,meteohub,2013-07-26 03:40:00,
2013-07-25 23:45:00,70.9,63.3,30.04,North,353,0.0,3.0,77,0.00,,,0.04,meteohub,2013-07-26 03:45:00,
2013-07-25 23:50:00,70.9,63.3,30.04,North,353,0.0,3.0,77,0.00,,,0.04,meteohub,2013-07-26 03:50:00,
2013-07-25 23:55:00,70.7,63.1,30.04,North,353,0.0,3.0,77,0.00,,,0.04,meteohub,2013-07-26 03:55:00,